Location: Bogis-Bossey
(46.3500°N, 6.1667°E)
Time: 17:40:41
(UTC+00:00)

NOSS 3-1 (A) - Pass Details

Date: 17 August 2022
Orbit: 700 x 1511 km, 63.4° (Epoch: 28 September)

Event Time Altitude Azimuth Distance (km) Brightness Sun altitude
Rises 21:00:54 0° 240° (WSW) 3,184 6.4 -20.6°
Reaches altitude 10° 21:03:13 10° 247° (WSW) 2,327 5.7 -20.9°
Maximum altitude 21:08:20 46° 320° (NW) 1,157 4.3 -21.5°
Drops below altitude 10° 21:14:26 10° 33° (NNE) 2,779 6.1 -22.1°
Sets 21:17:27 0° 40° (NE) 3,870 6.8 -22.5°
